Simultaneous Nadir Overpasses (SNOs) Predictions

Prediction of SNOs between NOAA-20 and PACE Satellite Orbit:

Table of predicted SNOs for the next 14.0 days since TLE Epoch: 12/14/2024
Index Date (NOAA-20) Time (NOAA-20) Lat,Lon (NOAA-20) SZA (NOAA-20 ) Date (PACE) Time (PACE) Lat,Lon (PACE) SZA (PACE ) Distance(km) Time Diff (sec)
1 12/15/2024 22:12:48 79.79, 169.75 104.89 12/15/2024 22:13:24 79.79, 169.66 104.89 2.00 36
2 12/15/2024 23:03:26 -79.57, -21.02 75.48 12/15/2024 23:02:28 -79.57, -21.03 75.46 0.30 58
3 12/18/2024 02:39:18 79.79, 103.08 105.00 12/18/2024 02:39:34 79.78, 103.18 104.98 2.26 16
4 12/18/2024 03:27:19 -72.71, -60.34 83.85 12/18/2024 03:26:07 -72.31, -62.99 84.12 99.44 72
5 12/20/2024 07:05:47 79.77, 36.66 105.03 12/20/2024 07:05:43 79.76, 36.78 105.01 2.59 4
6 12/22/2024 10:41:34 -79.84, 162.05 74.82 12/22/2024 10:42:45 -79.85, 161.93 74.84 2.52 71
7 12/22/2024 11:32:13 79.66, -28.95 104.86 12/22/2024 11:31:49 79.66, -29.00 104.88 1.04 24
8 12/24/2024 15:08:05 -79.88, 95.01 74.76 12/24/2024 15:08:54 -79.88, 95.14 74.79 2.51 49
9 12/24/2024 15:58:40 79.58, -94.89 104.72 12/24/2024 15:57:55 79.58, -94.98 104.75 2.11 45
10 12/26/2024 19:34:30 -79.75, 29.66 75.04 12/26/2024 19:34:58 -79.76, 29.53 75.03 2.91 28



Historial Predications of SNOs between NOAA-20 and PACE
